Вернуться в каталог

STARLINK-3977

АктивенСвязьVLEO
NORAD 52640·PAYLOAD·🇺🇸 United States

Запущен May 14, 2022 с Cape Canaveral Space Force Station

Loading…

Ближайшие Пролёты (ближайшие 24 часа)

TLE

СвежийSource: CelesTrak SupGP

Эпоха: Sep 15, 2026, 01:16 UTC

1 52640C 22052AU  26258.05326389  .00053696  00000+0  15367-2 0  2587
2 52640  53.1565 117.6069 0001218  82.3248  19.5913 15.35363007    15

Отслеживайте STARLINK-3977 в реальном времени с AllMySat

Download on the App Store